Chippewa, MI

12:15 PM EDT on October 23, 2019 (GMT -0400)
Chippewa County International

Weather History for KCIU - August, 2019

Change the Weather History Date:

Friday, August 23, 2019

  Actual Average Record
Temperature  
Mean Temperature 58 °F -  
Max Temperature 68 °F 74 °F 82 °F (2012)
Min Temperature 50 °F 48 °F 38 °F (1981)
Degree Days  
Heating Degree Days 7    
Growing Degree Days 8 (Base 50)    
Moisture  
Dew Point 49 °F    
Average Humidity 71    
Maximum Humidity 97    
Minimum Humidity 42    
Precipitation  
Precipitation 0.00 in - - ()
Sea Level Pressure  
Sea Level Pressure 30.24 in    
Wind  
Wind Speed 5 mph ()    
Max Wind Speed 18 mph    
Max Gust Speed 23 mph    
Visibility 10.0 miles    
Events      
Averages and records for this station are not official NWS values.
T = Trace of Precipitation, MM = Missing Value Source: Averaged Metar Reports

Daily Weather History Graph

Daily Weather History Graph

Search for Another Location

Airport or City:

Astronomy

Aug. 23, 2019 Rise Set
Actual Time 6:46 AM EDT 8:33 PM EDT
Civil Twilight 6:14 AM EDT 9:05 PM EDT
Nautical Twilight 5:35 AM EDT 9:44 PM EDT
Astronomical Twilight 4:52 AM EDT 10:26 PM EDT
Moon 12:01 AM EDT 2:48 PM EDT
Length of Visible Light 14h 50m
Length of Day
13h 46m
Waning Gibbous, 50% of the Moon is Illuminated
Aug 23
Waning Gibbous
Aug 30
New
Sep 5
First Quarter
Sep 14
Full
Sep 21
Last Quarter

Hourly Weather History & Observations

Time (EDT) Temp. Dew Point Humidity Pressure Visibility Wind Dir Wind Speed Gust Speed Precip Events Conditions
12:56 AM 53.1 °F 51.1 °F 93% 30.14 in 10.0 mi Calm Calm - N/A   Mostly Cloudy
1:56 AM 53.1 °F 51.1 °F 93% 30.15 in 10.0 mi Calm Calm - N/A   Overcast
3:56 AM 52.0 °F 51.1 °F 97% 30.16 in 10.0 mi Calm Calm - N/A   Overcast
4:56 AM 51.1 °F 50.0 °F 96% 30.18 in 10.0 mi Calm Calm - N/A   Overcast
5:56 AM 50.0 °F 48.9 °F 96% 30.19 in 10.0 mi West 4.6 mph - N/A   Overcast
6:56 AM 51.1 °F 48.9 °F 92% 30.22 in 10.0 mi Calm Calm - N/A   Overcast
7:56 AM 55.9 °F 51.1 °F 84% 30.23 in 10.0 mi North 5.8 mph - N/A   Overcast
8:56 AM 59.0 °F 50.0 °F 72% 30.24 in 10.0 mi North 5.8 mph - N/A   Overcast
9:56 AM 62.1 °F 50.0 °F 65% 30.24 in 10.0 mi NNW 6.9 mph - N/A   Overcast
10:56 AM 63.0 °F 50.0 °F 63% 30.25 in 10.0 mi NNW 9.2 mph 18.4 mph N/A   Scattered Clouds
11:56 AM 66.0 °F 48.0 °F 52% 30.26 in 10.0 mi NNW 15.0 mph 18.4 mph N/A   Partly Cloudy
12:56 PM 66.9 °F 46.0 °F 47% 30.25 in 10.0 mi NNW 18.4 mph 23.0 mph N/A   Partly Cloudy
1:56 PM 66.0 °F 42.1 °F 42% 30.26 in 10.0 mi North 15.0 mph 20.7 mph N/A   Mostly Cloudy
2:56 PM 66.0 °F 43.0 °F 43% 30.25 in 10.0 mi NW 12.7 mph 21.9 mph N/A   Mostly Cloudy
3:56 PM 66.9 °F 45.0 °F 45% 30.26 in 10.0 mi NW 12.7 mph - N/A   Partly Cloudy
5:56 PM 66.9 °F 46.9 °F 49% 30.25 in 10.0 mi NNW 9.2 mph - N/A   Clear
6:56 PM 64.9 °F 50.0 °F 58% 30.25 in 10.0 mi North 9.2 mph - N/A   Clear
7:56 PM 62.1 °F 50.0 °F 65% 30.26 in 10.0 mi NNW 8.1 mph - N/A   Clear
8:56 PM 57.9 °F 50.0 °F 75% 30.27 in 10.0 mi NNW 8.1 mph - N/A   Clear
9:56 PM 55.9 °F 50.0 °F 80% 30.28 in 10.0 mi NNW 9.2 mph - N/A   Clear
10:56 PM 55.9 °F 50.0 °F 80% 30.30 in 10.0 mi NNW 9.2 mph - N/A   Clear
11:56 PM 55.0 °F 50.0 °F 83% 30.30 in 10.0 mi North 6.9 mph - N/A   Clear